This is the latest recevied weather packets stored in our database for station/object NK7E. If no packets are shown the sender has not sent any weather packets the latest 10 day(s).
| Time | Temp. | Humidity | Pressure | Rain* | Wind** | Luminosity | Snow |
|---|---|---|---|---|---|---|---|
| 1777627516 | 16.11° C | 60% | 1010.6 hPa | 0 mm | - | 0 W/m² | - |
| 1777626916 | 16.11° C | 61% | 1010.4 hPa | 0 mm | - | 0 W/m² | - |
| 1777626316 | 16.11° C | 58% | 1010.5 hPa | 0 mm | - | 0 W/m² | - |
| 1777625716 | 16.67° C | 56% | 1010.4 hPa | 0 mm | - | 0 W/m² | - |
| 1777625116 | 16.67° C | 56% | 1010.5 hPa | 0 mm | - | 0 W/m² | - |
| 1777624516 | 16.67° C | 55% | 1010.5 hPa | 0 mm | - | 0 W/m² | - |
| 1777623916 | 16.67° C | 55% | 1010.6 hPa | 0 mm | - | 0 W/m² | - |
| 1777623316 | 17.22° C | 54% | 1010.7 hPa | 0 mm | - | 0 W/m² | - |
| 1777622716 | 17.22° C | 54% | 1010.6 hPa | 0 mm | - | 0 W/m² | - |
| 1777622116 | 17.22° C | 55% | 1010.6 hPa | 0 mm | - | 0 W/m² | - |
| 1777621516 | 16.67° C | 57% | 1010.7 hPa | 0 mm | - | 0 W/m² | - |
| 1777620916 | 16.67° C | 57% | 1010.7 hPa | 0 mm | - | 0 W/m² | - |
| 1777620316 | 16.67° C | 59% | 1011 hPa | 0 mm | - | 0 W/m² | - |
| 1777619716 | 16.67° C | 60% | 1011.1 hPa | 0 mm | - | 0 W/m² | - |
| 1777619116 | 16.11° C | 61% | 1011.4 hPa | 0 mm | - | 0 W/m² | - |
| 1777618516 | 16.67° C | 61% | 1011.5 hPa | 0 mm | - | 0 W/m² | - |
| 1777617916 | 16.67° C | 61% | 1011.6 hPa | 0 mm | - | 0 W/m² | - |
| 1777617316 | 16.67° C | 62% | 1011.7 hPa | 0 mm | - | 0 W/m² | - |
| 1777616716 | 16.67° C | 62% | 1011.6 hPa | 0 mm | - | 0 W/m² | - |
| 1777616116 | 16.67° C | 62% | 1011.6 hPa | 0 mm | - | 0 W/m² | - |
| 1777615516 | 16.67° C | 62% | 1011.6 hPa | 0 mm | - | 0 W/m² | - |
| 1777614916 | 16.67° C | 62% | 1011.7 hPa | 0 mm | - | 0 W/m² | - |
| 1777614316 | 16.67° C | 62% | 1011.8 hPa | 0 mm | - | 0 W/m² | - |
| 1777613716 | 17.22° C | 62% | 1011.9 hPa | 0 mm | - | 0 W/m² | - |
| 1777613116 | 17.22° C | 61% | 1011.9 hPa | 0 mm | - | 0 W/m² | - |
* Rain latest hour (hover to see other rain measurements)
** Current wind speed in m/s (hover to see current wind gust speed)